This demonstration page uses our WeatherBlox Daily Observations layout. Learn more.

Left ArrowRight Arrow

34.74481, -87.66753

Hourly Observations for May 4, 2021

Temp ( °F °C ) Dew Point ( °F °C ) Humidity (%) Winds ( mph kmh ) Pressure ( in mb ) Visibility ( mi km ) Precip ( " mm )
12:53 am 00:53 Clear 76 24.4 70 21.1 82 82 S 8 13 29.77 1008 8 13 0.00 0.00
1:42 am 01:42 Mostly Cloudy 77 25 70 21.1 79 79 S 9 15 29.77 1008 10 16 0.00 0.00
1:53 am 01:53 Cloudy 77 25 70 21.1 79 79 S 8 13 29.76 1008 10 16 0.00 0.00
2:53 am 02:53 Cloudy 78 25.6 70 21.1 76 76 SSW 14 22 29.75 1008 10 16 0.00 0.00
4:53 am 04:53 Cloudy 78 25.6 70 21.1 76 76 SSW 12 19 29.76 1008 10 16 0.00 0.00
5:53 am 05:53 Cloudy 78 25.6 70 21.1 76 76 SW 17 28 29.77 1008 10 16 0.00 0.00
6:13 am 06:13 Cloudy with Nearby Thunderstorms 78 25.6 70 21.1 76 76 SW 14 22 29.78 1008 9 14 0.00 0.00
6:53 am 06:53 Cloudy with Nearby Thunderstorms 78 25.6 70 21.1 76 76 SW 9 15 29.80 1009 9 14 0.00 0.00
7:13 am 07:13 Cloudy with Thunderstorms 75 23.9 66 18.9 74 74 WSW 15 24 29.81 1009 7 11 0.01 0.25
7:29 am 07:29 Cloudy with Strong Thunderstorms 71 21.7 64 17.8 79 79 W 22 35 29.82 1010 2 3 0.12 3.05
7:41 am 07:41 Cloudy with Strong Thunderstorms 70 21.1 63 17.2 79 79 WNW 15 24 29.82 1010 2 3 0.34 8.64
7:45 am 07:45 Cloudy with Thunderstorms 70 21.1 64 17.8 82 82 NNW 16 26 29.82 1010 3 5 0.37 9.40
7:53 am 07:53 Cloudy with Strong Thunderstorms 69 20.6 63 17.2 81 81 NNW 13 20 29.83 1010 4 6 0.42 10.67
7:59 am 07:59 Cloudy with Strong Thunderstorms 68 20 62 16.7 81 81 NNW 9 15 29.84 1010 3 4 0.07 1.78
8:17 am 08:17 Cloudy with Thunderstorms 67 19.4 63 17.2 87 87 N 8 13 29.86 1011 2 2 0.29 7.37
8:23 am 08:23 Cloudy with Strong Thunderstorms 67 19.4 62 16.7 84 84 N 5 7 29.88 1012 3 5 0.32 8.13
8:30 am 08:30 Cloudy with Strong Thunderstorms 67 19.4 62 16.7 84 84 N 5 7 29.87 1011 2 3 0.41 10.41
8:45 am 08:45 Cloudy with Nearby Thunderstorms 67 19.4 62 16.7 84 84 SE 9 15 29.86 1011 2 3 0.50 12.70
8:53 am 08:53 Mostly Cloudy with Nearby Thunderstorms 67 19.4 62 16.7 84 84 ENE 10 17 29.84 1010 8 13 0.50 12.70
9:00 am 09:00 Partly Cloudy 67 19.4 62 16.7 84 84 NNE 6 9 29.85 1011 10 16 0.00 0.00
9:48 am 09:48 Partly Cloudy 68 20 63 17 83 83 SSE 5 7 29.88 1012 10 16 0.00 0.00
9:53 am 09:53 Partly Cloudy 68 20 62 16.7 81 81 ESE 6 9 29.86 1011 10 16 0.00 0.00
10:07 am 10:07 Mostly Cloudy 69 20.6 63 17.2 81 81 SE 8 13 29.87 1011 10 16 0.00 0.00
10:53 am 10:53 Cloudy 70 21.1 63 17.2 79 79 ESE 7 11 29.86 1011 10 16 0.00 0.00
11:53 am 11:53 Mostly Cloudy 71 21.7 64 17.8 79 79 E 6 9 29.85 1011 10 16 0.00 0.00
12:31 pm 12:31 Mostly Cloudy with Light Rain 70 21.1 64 17.8 82 82 ESE 9 15 29.79 1009 10 16 0.00 0.00
12:53 pm 12:53 Partly Cloudy 71 21.7 65 18.3 81 81 SSE 10 17 29.79 1009 10 16 0.00 0.00
1:02 pm 13:02 Mostly Cloudy 71 21.7 65 18.3 81 81 SE 14 22 29.78 1009 10 16 0.00 0.00
1:37 pm 13:37 Partly Cloudy 71 21.7 65 18.3 81 81 SSE 14 22 29.77 1008 10 16 0.00 0.00
1:53 pm 13:53 Partly Cloudy 72 22.2 65 18.3 79 79 SE 12 19 29.74 1007 10 16 0.00 0.00
2:12 pm 14:12 Mostly Cloudy 73 22.8 66 18.9 79 79 SSE 7 11 29.76 1008 10 16 0.00 0.00
2:53 pm 14:53 Cloudy 74 23.3 66 18.9 76 76 SE 3 6 29.76 1008 10 16 0.00 0.00
3:07 pm 15:07 Mostly Cloudy 74 23.3 66 18.9 76 76 E 3 6 29.76 1008 10 16 0.00 0.00
3:46 pm 15:46 Partly Cloudy 73 22.8 66 18.9 79 79 NE 6 9 29.74 1007 10 16 0.00 0.00
3:53 pm 15:53 Partly Cloudy with Nearby Thunderstorms 73 22.8 66 18.9 79 79 E 3 6 29.75 1007 10 16 0.00 0.00
4:01 pm 16:01 Mostly Cloudy with Thunderstorms 73 22.8 66 18.9 79 79 E 7 11 29.73 1007 10 16 0.00 0.00
4:08 pm 16:08 Mostly Cloudy with Thunderstorms 72 22.2 66 18.9 82 82 E 5 7 29.75 1008 10 16 0.00 0.00
4:22 pm 16:22 Cloudy with Strong Thunderstorms 72 22.2 66 18.9 82 82 W 29 46 29.83 1010 1 2 0.46 11.68
4:24 pm 16:24 Cloudy with Strong Thunderstorms 70 21.1 65 18.3 84 84 WSW 23 37 29.82 1010 1 1 0.60 15.24
4:33 pm 16:33 Cloudy with Strong Thunderstorms 68 20 62 16.7 81 81 W 10 17 29.81 1009 1 2 0.81 20.57
4:38 pm 16:38 Cloudy with Strong Thunderstorms 68 20 63 17.2 84 84 W 10 17 29.82 1010 2 3 0.84 21.34
4:48 pm 16:48 Cloudy with Thunderstorms 68 20 64 18 88 88 S 3 6 29.83 1010 3 5 0.86 21.84
4:53 pm 16:53 Cloudy with Thunderstorms 68 20 64 17.8 87 87 Calm 29.82 1010 4 6 0.87 22.10
4:57 pm 16:57 Cloudy with Nearby Thunderstorms 69 20.6 65 18.3 87 87 W 3 6 29.83 1010 4 6 0.01 0.25
5:24 pm 17:24 Cloudy with Rain 70 21.1 65 18.3 84 84 W 10 17 29.87 1011 5 8 0.08 2.03
5:53 pm 17:53 Mostly Cloudy with Nearby Thunderstorms 69 20.6 63 17.2 81 81 W 8 13 29.87 1012 6 10 0.13 3.30
6:08 pm 18:08 Cloudy with Rain 69 20.6 63 17.2 81 81 SE 3 6 29.86 1011 4 6 0.04 1.02
6:15 pm 18:15 Mostly Cloudy with Nearby Thunderstorms 68 20 63 17.2 84 84 E 9 15 29.81 1009 5 8 0.05 1.27
6:39 pm 18:39 Partly Cloudy 68 20 63 17.2 84 84 E 6 9 29.78 1008 10 16 0.06 1.52
6:53 pm 18:53 Mostly Sunny 67 19.4 62 16.7 84 84 SE 9 15 29.76 1008 10 16 0.06 1.52
7:53 pm 19:53 Clear 67 19.4 63 17.2 87 87 SSE 7 11 29.77 1008 10 16 0.00 0.00
8:53 pm 20:53 Clear 66 18.9 62 16.7 87 87 S 8 13 29.81 1010 10 16 0.00 0.00
9:00 pm 21:00 Mostly Clear 66 18.9 62 16.7 87 87 S 8 13 29.82 1010 10 16 0.00 0.00
9:21 pm 21:21 Mostly Cloudy 66 18.9 61 16.1 84 84 SW 7 11 29.85 1011 10 16 0.00 0.00
9:30 pm 21:30 Mostly Cloudy 66 18.9 61 16.1 84 84 WSW 6 9 29.85 1011 10 16 0.00 0.00
9:43 pm 21:43 Partly Cloudy 65 18.3 61 16.1 87 87 WSW 7 11 29.86 1011 10 16 0.00 0.00
9:53 pm 21:53 Mostly Cloudy 66 18.9 61 16.1 84 84 SW 5 7 29.85 1011 10 16 0.00 0.00
10:42 pm 22:42 Mostly Clear 64 17.8 60 15.6 87 87 WSW 7 11 29.85 1011 10 16 0.00 0.00
10:53 pm 22:53 Partly Cloudy 64 17.8 60 15.6 87 87 WSW 5 7 29.85 1011 10 16 0.00 0.00
11:53 pm 23:53 Cloudy 65 18.3 60 15.6 84 84 W 3 6 29.84 1011 10 16 0.00 0.00

Powered by AerisWeather